Terminal Aerodrome Forecast
Issued by NWS

Home | Current Version | Previous Version | Text Only | Print | Product List | Glossary Off
Versions: 1 2 3 4 5 6 7 8 9 10 11 12 13 14

000
FTUS43 KGRB 250200 AAA
TAFMTW
TAF AMD
KMTW 250222Z 2502/2524 29016G26KT P6SM FEW040
     FM250400 31010KT P6SM SKC
     FM250700 32005KT P6SM SCT250
     FM251500 34006KT P6SM BKN150
     FM252000 01006KT P6SM BKN100=

USA.gov is the U.S. government's official web portal to all federal, state and local government web resources and services.